owner,sensor,date,latitude,longitude,sea_surface_height_above_sea_level,qcFlag 
TCOON,ioos:station:TCOON:003:1,2019-03-01T02:36:00Z,26.8015,-97.4706,1.305,1111122 
TCOON,ioos:station:TCOON:003:1,2019-03-01T03:24:00Z,26.8015,-97.4706,1.329,1111122 
TCOON,ioos:station:TCOON:003:1,2019-03-01T04:24:00Z,26.8015,-97.4706,1.316,1111122 
TCOON,ioos:station:TCOON:003:1,2019-03-01T05:24:00Z,26.8015,-97.4706,1.279,1111122 
TCOON,ioos:station:TCOON:003:1,2019-03-01T06:24:00Z,26.8015,-97.4706,1.227,1111122 
TCOON,ioos:station:TCOON:003:1,2019-03-01T07:24:00Z,26.8015,-97.4706,1.192,1111122 
TCOON,ioos:station:TCOON:003:1,2019-03-01T08:24:00Z,26.8015,-97.4706,1.202,1111122 
TCOON,ioos:station:TCOON:003:1,2019-03-01T09:24:00Z,26.8015,-97.4706,1.229,1111122 
TCOON,ioos:station:TCOON:003:1,2019-03-01T10:24:00Z,26.8015,-97.4706,1.243,1111122 
TCOON,ioos:station:TCOON:003:1,2019-03-01T11:24:00Z,26.8015,-97.4706,1.245,1111122 
TCOON,ioos:station:TCOON:003:1,2019-03-01T12:24:00Z,26.8015,-97.4706,1.232,1111122 
TCOON,ioos:station:TCOON:003:1,2019-03-01T13:24:00Z,26.8015,-97.4706,1.215,1111122 
TCOON,ioos:station:TCOON:003:1,2019-03-01T14:24:00Z,26.8015,-97.4706,1.203,1111122 
TCOON,ioos:station:TCOON:003:1,2019-03-01T15:36:00Z,26.8015,-97.4706,1.207,1111122 
TCOON,ioos:station:TCOON:003:1,2019-03-01T16:24:00Z,26.8015,-97.4706,1.212,1111122 
TCOON,ioos:station:TCOON:003:1,2019-03-01T17:24:00Z,26.8015,-97.4706,1.209,1111122 
TCOON,ioos:station:TCOON:003:1,2019-03-01T18:24:00Z,26.8015,-97.4706,1.2,1111122 
TCOON,ioos:station:TCOON:003:1,2019-03-01T19:24:00Z,26.8015,-97.4706,1.203,1111122 
TCOON,ioos:station:TCOON:003:1,2019-03-01T20:24:00Z,26.8015,-97.4706,1.207,1111122 
TCOON,ioos:station:TCOON:003:1,2019-03-01T21:24:00Z,26.8015,-97.4706,1.211,1111122 
TCOON,ioos:station:TCOON:003:1,2019-03-01T22:24:00Z,26.8015,-97.4706,1.232,1111122 
TCOON,ioos:station:TCOON:003:1,2019-03-01T23:24:00Z,26.8015,-97.4706,1.254,1111122 
TCOON,ioos:station:TCOON:003:1,2019-03-02T00:24:00Z,26.8015,-97.4706,1.264,1111122 
TCOON,ioos:station:TCOON:003:1,2019-03-02T01:24:00Z,26.8015,-97.4706,1.264,1111122 
TCOON,ioos:station:TCOON:003:1,2019-03-02T02:24:00Z,26.8015,-97.4706,1.268,1111122 
TCOON,ioos:station:TCOON:003:1,2019-03-02T03:24:00Z,26.8015,-97.4706,1.274,1111122 
TCOON,ioos:station:TCOON:003:1,2019-03-02T04:24:00Z,26.8015,-97.4706,1.288,1111122 
TCOON,ioos:station:TCOON:003:1,2019-03-02T05:24:00Z,26.8015,-97.4706,1.308,1111122 
TCOON,ioos:station:TCOON:003:1,2019-03-02T06:24:00Z,26.8015,-97.4706,1.333,1111122 
TCOON,ioos:station:TCOON:003:1,2019-03-02T07:24:00Z,26.8015,-97.4706,1.349,1111122 
TCOON,ioos:station:TCOON:003:1,2019-03-02T08:24:00Z,26.8015,-97.4706,1.347,1111122 
TCOON,ioos:station:TCOON:003:1,2019-03-02T09:24:00Z,26.8015,-97.4706,1.339,1111122 
TCOON,ioos:station:TCOON:003:1,2019-03-02T10:24:00Z,26.8015,-97.4706,1.313,1111122 
TCOON,ioos:station:TCOON:003:1,2019-03-02T11:24:00Z,26.8015,-97.4706,1.295,1111122 
TCOON,ioos:station:TCOON:003:1,2019-03-02T12:24:00Z,26.8015,-97.4706,1.289,1111122 
TCOON,ioos:station:TCOON:003:1,2019-03-02T13:24:00Z,26.8015,-97.4706,1.288,1111122 
TCOON,ioos:station:TCOON:003:1,2019-03-02T14:24:00Z,26.8015,-97.4706,1.284,1111122 
TCOON,ioos:station:TCOON:003:1,2019-03-02T15:24:00Z,26.8015,-97.4706,1.296,1111122 
TCOON,ioos:station:TCOON:003:1,2019-03-02T16:24:00Z,26.8015,-97.4706,1.3,1111122 
TCOON,ioos:station:TCOON:003:1,2019-03-02T17:24:00Z,26.8015,-97.4706,1.299,1111122 
TCOON,ioos:station:TCOON:003:1,2019-03-02T18:24:00Z,26.8015,-97.4706,1.309,1111122 
TCOON,ioos:station:TCOON:003:1,2019-03-02T19:24:00Z,26.8015,-97.4706,1.334,1111122 
TCOON,ioos:station:TCOON:003:1,2019-03-02T20:24:00Z,26.8015,-97.4706,1.376,1111122 
TCOON,ioos:station:TCOON:003:1,2019-03-02T21:24:00Z,26.8015,-97.4706,1.408,1111122 
TCOON,ioos:station:TCOON:003:1,2019-03-02T22:24:00Z,26.8015,-97.4706,1.438,1111122 
TCOON,ioos:station:TCOON:003:1,2019-03-02T23:24:00Z,26.8015,-97.4706,1.434,1111122 
TCOON,ioos:station:TCOON:003:1,2019-03-03T00:24:00Z,26.8015,-97.4706,1.397,1111122 
TCOON,ioos:station:TCOON:003:1,2019-03-03T01:24:00Z,26.8015,-97.4706,1.371,1111122 
TCOON,ioos:station:TCOON:003:1,2019-03-03T02:24:00Z,26.8015,-97.4706,1.36,1111122 
TCOON,ioos:station:TCOON:003:1,2019-03-03T03:24:00Z,26.8015,-97.4706,1.351,1111122 
TCOON,ioos:station:TCOON:003:1,2019-03-03T04:24:00Z,26.8015,-97.4706,1.354,1111122 
TCOON,ioos:station:TCOON:003:1,2019-03-03T05:24:00Z,26.8015,-97.4706,1.354,1111122 
TCOON,ioos:station:TCOON:003:1,2019-03-03T06:24:00Z,26.8015,-97.4706,1.357,1111122 
TCOON,ioos:station:TCOON:003:1,2019-03-03T07:24:00Z,26.8015,-97.4706,1.369,1111122 
TCOON,ioos:station:TCOON:003:1,2019-03-03T08:24:00Z,26.8015,-97.4706,1.368,1111122 
TCOON,ioos:station:TCOON:003:1,2019-03-03T09:24:00Z,26.8015,-97.4706,1.357,1111122 
TCOON,ioos:station:TCOON:003:1,2019-03-03T10:24:00Z,26.8015,-97.4706,1.346,1111122 
TCOON,ioos:station:TCOON:003:1,2019-03-03T11:24:00Z,26.8015,-97.4706,1.323,1111122 
TCOON,ioos:station:TCOON:003:1,2019-03-03T12:24:00Z,26.8015,-97.4706,1.305,1111122 
TCOON,ioos:station:TCOON:003:1,2019-03-03T13:24:00Z,26.8015,-97.4706,1.293,1111122 
TCOON,ioos:station:TCOON:003:1,2019-03-03T14:24:00Z,26.8015,-97.4706,1.302,1111122 
TCOON,ioos:station:TCOON:003:1,2019-03-03T15:24:00Z,26.8015,-97.4706,1.307,1111122 
TCOON,ioos:station:TCOON:003:1,2019-03-03T16:24:00Z,26.8015,-97.4706,1.301,1111122 
TCOON,ioos:station:TCOON:003:1,2019-03-03T17:24:00Z,26.8015,-97.4706,1.295,1111122 
TCOON,ioos:station:TCOON:003:1,2019-03-03T18:24:00Z,26.8015,-97.4706,1.293,1111122 
TCOON,ioos:station:TCOON:003:1,2019-03-03T19:24:00Z,26.8015,-97.4706,1.229,1111122 
TCOON,ioos:station:TCOON:003:1,2019-03-03T20:24:00Z,26.8015,-97.4706,1.165,1111122 
TCOON,ioos:station:TCOON:003:1,2019-03-03T21:24:00Z,26.8015,-97.4706,1.115,1111122 
TCOON,ioos:station:TCOON:003:1,2019-03-03T22:24:00Z,26.8015,-97.4706,1.088,1111122 
TCOON,ioos:station:TCOON:003:1,2019-03-03T23:24:00Z,26.8015,-97.4706,1.059,1111122 
TCOON,ioos:station:TCOON:003:1,2019-03-04T00:24:00Z,26.8015,-97.4706,1.034,1111122 
TCOON,ioos:station:TCOON:003:1,2019-03-04T01:24:00Z,26.8015,-97.4706,1.016,1111122 
TCOON,ioos:station:TCOON:003:1,2019-03-04T02:24:00Z,26.8015,-97.4706,1.002,1111122 
TCOON,ioos:station:TCOON:003:1,2019-03-04T03:24:00Z,26.8015,-97.4706,1.007,1111122 
TCOON,ioos:station:TCOON:003:1,2019-03-04T04:24:00Z,26.8015,-97.4706,0.999,1111122 
TCOON,ioos:station:TCOON:003:1,2019-03-04T05:24:00Z,26.8015,-97.4706,1.006,1111122 
TCOON,ioos:station:TCOON:003:1,2019-03-04T06:24:00Z,26.8015,-97.4706,1.023,1111122 
TCOON,ioos:station:TCOON:003:1,2019-03-04T07:24:00Z,26.8015,-97.4706,1.019,1111122 
TCOON,ioos:station:TCOON:003:1,2019-03-04T08:24:00Z,26.8015,-97.4706,1.021,1111122 
TCOON,ioos:station:TCOON:003:1,2019-03-04T09:24:00Z,26.8015,-97.4706,1.006,1111122 
TCOON,ioos:station:TCOON:003:1,2019-03-04T10:24:00Z,26.8015,-97.4706,0.98,1111122 
TCOON,ioos:station:TCOON:003:1,2019-03-04T11:24:00Z,26.8015,-97.4706,0.96,1111122 
TCOON,ioos:station:TCOON:003:1,2019-03-04T12:24:00Z,26.8015,-97.4706,0.931,1111122 
TCOON,ioos:station:TCOON:003:1,2019-03-04T13:24:00Z,26.8015,-97.4706,0.896,1111122 
TCOON,ioos:station:TCOON:003:1,2019-03-04T14:24:00Z,26.8015,-97.4706,0.867,1111122 
TCOON,ioos:station:TCOON:003:1,2019-03-04T15:24:00Z,26.8015,-97.4706,0.844,1111122 
TCOON,ioos:station:TCOON:003:1,2019-03-04T16:24:00Z,26.8015,-97.4706,0.826,1111122 
TCOON,ioos:station:TCOON:003:1,2019-03-04T17:24:00Z,26.8015,-97.4706,0.831,1111122 
TCOON,ioos:station:TCOON:003:1,2019-03-04T18:24:00Z,26.8015,-97.4706,0.833,1111122 
TCOON,ioos:station:TCOON:003:1,2019-03-04T19:24:00Z,26.8015,-97.4706,0.833,1111122 
TCOON,ioos:station:TCOON:003:1,2019-03-04T20:24:00Z,26.8015,-97.4706,0.836,1111122 
TCOON,ioos:station:TCOON:003:1,2019-03-04T21:24:00Z,26.8015,-97.4706,0.852,1111122 
TCOON,ioos:station:TCOON:003:1,2019-03-04T22:24:00Z,26.8015,-97.4706,0.867,1111122 
TCOON,ioos:station:TCOON:003:1,2019-03-04T23:24:00Z,26.8015,-97.4706,0.874,1111122 
TCOON,ioos:station:TCOON:003:1,2019-03-05T00:24:00Z,26.8015,-97.4706,0.89,1111122 
TCOON,ioos:station:TCOON:003:1,2019-03-05T01:24:00Z,26.8015,-97.4706,0.906,1111122 
TCOON,ioos:station:TCOON:003:1,2019-03-05T02:24:00Z,26.8015,-97.4706,0.923,1111122 
TCOON,ioos:station:TCOON:003:1,2019-03-05T03:24:00Z,26.8015,-97.4706,0.929,1111122 
TCOON,ioos:station:TCOON:003:1,2019-03-05T04:24:00Z,26.8015,-97.4706,0.933,1111122 
TCOON,ioos:station:TCOON:003:1,2019-03-05T05:24:00Z,26.8015,-97.4706,0.936,1111122 
TCOON,ioos:station:TCOON:003:1,2019-03-05T06:24:00Z,26.8015,-97.4706,0.934,1111122 
TCOON,ioos:station:TCOON:003:1,2019-03-05T07:24:00Z,26.8015,-97.4706,0.939,1111122 
TCOON,ioos:station:TCOON:003:1,2019-03-05T08:24:00Z,26.8015,-97.4706,0.947,1111122 
TCOON,ioos:station:TCOON:003:1,2019-03-05T09:24:00Z,26.8015,-97.4706,0.947,1111122 
TCOON,ioos:station:TCOON:003:1,2019-03-05T10:24:00Z,26.8015,-97.4706,0.952,1111122 
TCOON,ioos:station:TCOON:003:1,2019-03-05T11:24:00Z,26.8015,-97.4706,0.959,1111122 
TCOON,ioos:station:TCOON:003:1,2019-03-05T12:24:00Z,26.8015,-97.4706,0.966,1111122 
TCOON,ioos:station:TCOON:003:1,2019-03-05T13:24:00Z,26.8015,-97.4706,0.96,1111122 
TCOON,ioos:station:TCOON:003:1,2019-03-05T14:24:00Z,26.8015,-97.4706,0.948,1111122 
TCOON,ioos:station:TCOON:003:1,2019-03-05T15:24:00Z,26.8015,-97.4706,0.933,1111122 
TCOON,ioos:station:TCOON:003:1,2019-03-05T16:24:00Z,26.8015,-97.4706,0.927,1111122 
TCOON,ioos:station:TCOON:003:1,2019-03-05T17:24:00Z,26.8015,-97.4706,0.931,1111122 
TCOON,ioos:station:TCOON:003:1,2019-03-05T18:24:00Z,26.8015,-97.4706,0.937,1111122 
TCOON,ioos:station:TCOON:003:1,2019-03-05T19:24:00Z,26.8015,-97.4706,0.945,1111122 
TCOON,ioos:station:TCOON:003:1,2019-03-05T20:24:00Z,26.8015,-97.4706,0.953,1111122 
TCOON,ioos:station:TCOON:003:1,2019-03-05T22:24:00Z,26.8015,-97.4706,0.991,1111122 
TCOON,ioos:station:TCOON:003:1,2019-03-05T23:24:00Z,26.8015,-97.4706,1.008,1111122 
TCOON,ioos:station:TCOON:003:1,2019-03-06T00:24:00Z,26.8015,-97.4706,1.024,1111122 
TCOON,ioos:station:TCOON:003:1,2019-03-06T01:24:00Z,26.8015,-97.4706,1.04,1111122 
TCOON,ioos:station:TCOON:003:1,2019-03-06T02:24:00Z,26.8015,-97.4706,1.053,1111122 
TCOON,ioos:station:TCOON:003:1,2019-03-06T03:24:00Z,26.8015,-97.4706,1.067,1111122 
TCOON,ioos:station:TCOON:003:1,2019-03-06T04:24:00Z,26.8015,-97.4706,1.08,1111122 
TCOON,ioos:station:TCOON:003:1,2019-03-06T05:24:00Z,26.8015,-97.4706,1.075,1111122 
TCOON,ioos:station:TCOON:003:1,2019-03-06T06:24:00Z,26.8015,-97.4706,1.065,1111122 
TCOON,ioos:station:TCOON:003:1,2019-03-06T07:24:00Z,26.8015,-97.4706,1.058,1111122 
TCOON,ioos:station:TCOON:003:1,2019-03-06T08:24:00Z,26.8015,-97.4706,1.051,1111122 
TCOON,ioos:station:TCOON:003:1,2019-03-06T09:24:00Z,26.8015,-97.4706,1.061,1111122 
TCOON,ioos:station:TCOON:003:1,2019-03-06T10:24:00Z,26.8015,-97.4706,1.057,1111122 
TCOON,ioos:station:TCOON:003:1,2019-03-06T11:24:00Z,26.8015,-97.4706,1.053,1111122 
TCOON,ioos:station:TCOON:003:1,2019-03-06T12:24:00Z,26.8015,-97.4706,1.053,1111122 
TCOON,ioos:station:TCOON:003:1,2019-03-06T13:24:00Z,26.8015,-97.4706,1.05,1111122 
TCOON,ioos:station:TCOON:003:1,2019-03-06T14:24:00Z,26.8015,-97.4706,1.048,1111122 
TCOON,ioos:station:TCOON:003:1,2019-03-06T15:24:00Z,26.8015,-97.4706,1.051,1111122 
TCOON,ioos:station:TCOON:003:1,2019-03-06T16:24:00Z,26.8015,-97.4706,1.06,1111122 
TCOON,ioos:station:TCOON:003:1,2019-03-06T17:24:00Z,26.8015,-97.4706,1.061,1111122 
TCOON,ioos:station:TCOON:003:1,2019-03-06T18:24:00Z,26.8015,-97.4706,1.069,1111122 
TCOON,ioos:station:TCOON:003:1,2019-03-06T19:24:00Z,26.8015,-97.4706,1.062,1111122 
TCOON,ioos:station:TCOON:003:1,2019-03-06T20:24:00Z,26.8015,-97.4706,1.059,1111122 
TCOON,ioos:station:TCOON:003:1,2019-03-06T21:24:00Z,26.8015,-97.4706,1.056,1111122 
TCOON,ioos:station:TCOON:003:1,2019-03-06T22:24:00Z,26.8015,-97.4706,1.056,1111122 
TCOON,ioos:station:TCOON:003:1,2019-03-06T23:24:00Z,26.8015,-97.4706,1.068,1111122 
TCOON,ioos:station:TCOON:003:1,2019-03-07T00:24:00Z,26.8015,-97.4706,1.081,1111122 
TCOON,ioos:station:TCOON:003:1,2019-03-07T01:24:00Z,26.8015,-97.4706,1.094,1111122 
TCOON,ioos:station:TCOON:003:1,2019-03-07T02:24:00Z,26.8015,-97.4706,1.102,1111122 
TCOON,ioos:station:TCOON:003:1,2019-03-07T03:24:00Z,26.8015,-97.4706,1.1,1111122 
TCOON,ioos:station:TCOON:003:1,2019-03-07T04:24:00Z,26.8015,-97.4706,1.094,1111122 
TCOON,ioos:station:TCOON:003:1,2019-03-07T05:24:00Z,26.8015,-97.4706,1.098,1111122 
TCOON,ioos:station:TCOON:003:1,2019-03-07T06:24:00Z,26.8015,-97.4706,1.1,1111122 
TCOON,ioos:station:TCOON:003:1,2019-03-07T07:24:00Z,26.8015,-97.4706,1.105,1111122 
TCOON,ioos:station:TCOON:003:1,2019-03-07T08:24:00Z,26.8015,-97.4706,1.113,1111122 
TCOON,ioos:station:TCOON:003:1,2019-03-07T09:24:00Z,26.8015,-97.4706,1.124,1111122 
TCOON,ioos:station:TCOON:003:1,2019-03-07T10:24:00Z,26.8015,-97.4706,1.133,1111122 
TCOON,ioos:station:TCOON:003:1,2019-03-07T11:24:00Z,26.8015,-97.4706,1.136,1111122 
TCOON,ioos:station:TCOON:003:1,2019-03-07T12:24:00Z,26.8015,-97.4706,1.133,1111122 
TCOON,ioos:station:TCOON:003:1,2019-03-07T13:24:00Z,26.8015,-97.4706,1.131,1111122 
TCOON,ioos:station:TCOON:003:1,2019-03-07T14:24:00Z,26.8015,-97.4706,1.136,1111122 
TCOON,ioos:station:TCOON:003:1,2019-03-07T15:24:00Z,26.8015,-97.4706,1.135,1111122 
TCOON,ioos:station:TCOON:003:1,2019-03-07T16:24:00Z,26.8015,-97.4706,1.14,1111122 
TCOON,ioos:station:TCOON:003:1,2019-03-07T17:24:00Z,26.8015,-97.4706,1.143,1111122 
TCOON,ioos:station:TCOON:003:1,2019-03-07T19:42:00Z,26.8015,-97.4706,1.155,1111122 
TCOON,ioos:station:TCOON:003:1,2019-03-07T20:24:00Z,26.8015,-97.4706,1.163,1111122 
TCOON,ioos:station:TCOON:003:1,2019-03-07T21:24:00Z,26.8015,-97.4706,1.177,1111122 
TCOON,ioos:station:TCOON:003:1,2019-03-07T22:24:00Z,26.8015,-97.4706,1.187,1111122 
TCOON,ioos:station:TCOON:003:1,2019-03-07T23:24:00Z,26.8015,-97.4706,1.193,1111122 
TCOON,ioos:station:TCOON:003:1,2019-03-08T00:24:00Z,26.8015,-97.4706,1.201,1111122 
TCOON,ioos:station:TCOON:003:1,2019-03-08T01:24:00Z,26.8015,-97.4706,1.203,1111122 
TCOON,ioos:station:TCOON:003:1,2019-03-08T02:24:00Z,26.8015,-97.4706,1.202,1111122 
TCOON,ioos:station:TCOON:003:1,2019-03-08T03:24:00Z,26.8015,-97.4706,1.201,1111122 
TCOON,ioos:station:TCOON:003:1,2019-03-08T04:24:00Z,26.8015,-97.4706,1.203,1111122 
TCOON,ioos:station:TCOON:003:1,2019-03-08T05:24:00Z,26.8015,-97.4706,1.214,1111122 
TCOON,ioos:station:TCOON:003:1,2019-03-08T06:24:00Z,26.8015,-97.4706,1.224,1111122 
TCOON,ioos:station:TCOON:003:1,2019-03-08T07:24:00Z,26.8015,-97.4706,1.223,1111122 
TCOON,ioos:station:TCOON:003:1,2019-03-08T08:24:00Z,26.8015,-97.4706,1.238,1111122 
TCOON,ioos:station:TCOON:003:1,2019-03-08T09:24:00Z,26.8015,-97.4706,1.241,1111122 
TCOON,ioos:station:TCOON:003:1,2019-03-08T10:24:00Z,26.8015,-97.4706,1.238,1111122 
TCOON,ioos:station:TCOON:003:1,2019-03-08T11:24:00Z,26.8015,-97.4706,1.248,1111122 
TCOON,ioos:station:TCOON:003:1,2019-03-08T12:24:00Z,26.8015,-97.4706,1.257,1111122 
TCOON,ioos:station:TCOON:003:1,2019-03-08T13:24:00Z,26.8015,-97.4706,1.256,1111122 
TCOON,ioos:station:TCOON:003:1,2019-03-08T15:42:00Z,26.8015,-97.4706,1.26,1111122 
TCOON,ioos:station:TCOON:003:1,2019-03-08T16:30:00Z,26.8015,-97.4706,1.271,1111122 
TCOON,ioos:station:TCOON:003:1,2019-03-08T17:24:00Z,26.8015,-97.4706,1.277,1111122 
TCOON,ioos:station:TCOON:003:1,2019-03-08T18:24:00Z,26.8015,-97.4706,1.292,1111122 
TCOON,ioos:station:TCOON:003:1,2019-03-08T19:24:00Z,26.8015,-97.4706,1.321,1111122 
TCOON,ioos:station:TCOON:003:1,2019-03-08T20:24:00Z,26.8015,-97.4706,1.343,1111122 
TCOON,ioos:station:TCOON:003:1,2019-03-08T21:24:00Z,26.8015,-97.4706,1.349,1111122 
TCOON,ioos:station:TCOON:003:1,2019-03-08T22:24:00Z,26.8015,-97.4706,1.349,1111122 
TCOON,ioos:station:TCOON:003:1,2019-03-08T23:24:00Z,26.8015,-97.4706,1.345,1111122 
TCOON,ioos:station:TCOON:003:1,2019-03-09T00:24:00Z,26.8015,-97.4706,1.349,1111122 
TCOON,ioos:station:TCOON:003:1,2019-03-09T01:24:00Z,26.8015,-97.4706,1.334,1111122 
TCOON,ioos:station:TCOON:003:1,2019-03-09T02:24:00Z,26.8015,-97.4706,1.32,1111122 
TCOON,ioos:station:TCOON:003:1,2019-03-09T03:24:00Z,26.8015,-97.4706,1.322,1111122 
TCOON,ioos:station:TCOON:003:1,2019-03-09T04:24:00Z,26.8015,-97.4706,1.346,1111122 
TCOON,ioos:station:TCOON:003:1,2019-03-09T05:24:00Z,26.8015,-97.4706,1.353,1111122 
TCOON,ioos:station:TCOON:003:1,2019-03-09T06:24:00Z,26.8015,-97.4706,1.368,1111122 
TCOON,ioos:station:TCOON:003:1,2019-03-09T07:24:00Z,26.8015,-97.4706,1.379,1111122 
TCOON,ioos:station:TCOON:003:1,2019-03-09T08:24:00Z,26.8015,-97.4706,1.381,1111122 
TCOON,ioos:station:TCOON:003:1,2019-03-09T09:24:00Z,26.8015,-97.4706,1.374,1111122 
TCOON,ioos:station:TCOON:003:1,2019-03-09T10:24:00Z,26.8015,-97.4706,1.359,1111122 
TCOON,ioos:station:TCOON:003:1,2019-03-09T11:24:00Z,26.8015,-97.4706,1.347,1111122 
TCOON,ioos:station:TCOON:003:1,2019-03-09T12:24:00Z,26.8015,-97.4706,1.349,1111122 
TCOON,ioos:station:TCOON:003:1,2019-03-09T13:24:00Z,26.8015,-97.4706,1.334,1111122 
TCOON,ioos:station:TCOON:003:1,2019-03-09T14:24:00Z,26.8015,-97.4706,1.352,1111122 
TCOON,ioos:station:TCOON:003:1,2019-03-09T15:24:00Z,26.8015,-97.4706,1.37,1111122 
TCOON,ioos:station:TCOON:003:1,2019-03-09T16:24:00Z,26.8015,-97.4706,1.393,1111122 
TCOON,ioos:station:TCOON:003:1,2019-03-09T17:24:00Z,26.8015,-97.4706,1.423,1111122 
TCOON,ioos:station:TCOON:003:1,2019-03-09T18:24:00Z,26.8015,-97.4706,1.416,1111122 
TCOON,ioos:station:TCOON:003:1,2019-03-09T19:24:00Z,26.8015,-97.4706,1.386,1111122 
TCOON,ioos:station:TCOON:003:1,2019-03-09T20:24:00Z,26.8015,-97.4706,1.335,1111122 
TCOON,ioos:station:TCOON:003:1,2019-03-09T21:24:00Z,26.8015,-97.4706,1.312,1111122 
TCOON,ioos:station:TCOON:003:1,2019-03-09T22:24:00Z,26.8015,-97.4706,1.318,1111122 
TCOON,ioos:station:TCOON:003:1,2019-03-09T23:24:00Z,26.8015,-97.4706,1.345,1111122 
TCOON,ioos:station:TCOON:003:1,2019-03-10T00:24:00Z,26.8015,-97.4706,1.354,1111122 
TCOON,ioos:station:TCOON:003:1,2019-03-10T01:24:00Z,26.8015,-97.4706,1.366,1111122 
TCOON,ioos:station:TCOON:003:1,2019-03-10T02:24:00Z,26.8015,-97.4706,1.367,1111122 
TCOON,ioos:station:TCOON:003:1,2019-03-10T03:24:00Z,26.8015,-97.4706,1.358,1111122 
TCOON,ioos:station:TCOON:003:1,2019-03-10T04:24:00Z,26.8015,-97.4706,1.335,1111122 
TCOON,ioos:station:TCOON:003:1,2019-03-10T05:24:00Z,26.8015,-97.4706,1.328,1111122 
TCOON,ioos:station:TCOON:003:1,2019-03-10T06:24:00Z,26.8015,-97.4706,1.336,1111122 
TCOON,ioos:station:TCOON:003:1,2019-03-10T07:24:00Z,26.8015,-97.4706,1.341,1111122 
TCOON,ioos:station:TCOON:003:1,2019-03-10T08:24:00Z,26.8015,-97.4706,1.337,1111122 
TCOON,ioos:station:TCOON:003:1,2019-03-10T09:24:00Z,26.8015,-97.4706,1.325,1111122 
TCOON,ioos:station:TCOON:003:1,2019-03-10T10:24:00Z,26.8015,-97.4706,1.32,1111122 
TCOON,ioos:station:TCOON:003:1,2019-03-10T11:24:00Z,26.8015,-97.4706,1.319,1111122 
TCOON,ioos:station:TCOON:003:1,2019-03-10T12:24:00Z,26.8015,-97.4706,1.322,1111122 
TCOON,ioos:station:TCOON:003:1,2019-03-10T13:24:00Z,26.8015,-97.4706,1.32,1111122 
TCOON,ioos:station:TCOON:003:1,2019-03-10T14:24:00Z,26.8015,-97.4706,1.317,1111122 
TCOON,ioos:station:TCOON:003:1,2019-03-10T15:24:00Z,26.8015,-97.4706,1.323,1111122 
TCOON,ioos:station:TCOON:003:1,2019-03-10T16:24:00Z,26.8015,-97.4706,1.328,1111122 
TCOON,ioos:station:TCOON:003:1,2019-03-10T17:24:00Z,26.8015,-97.4706,1.339,1111122 
TCOON,ioos:station:TCOON:003:1,2019-03-10T18:24:00Z,26.8015,-97.4706,1.329,1111122 
TCOON,ioos:station:TCOON:003:1,2019-03-10T19:24:00Z,26.8015,-97.4706,1.324,1111122 
TCOON,ioos:station:TCOON:003:1,2019-03-10T20:24:00Z,26.8015,-97.4706,1.347,1111122 
TCOON,ioos:station:TCOON:003:1,2019-03-10T21:24:00Z,26.8015,-97.4706,1.375,1111122 
TCOON,ioos:station:TCOON:003:1,2019-03-11T03:24:00Z,26.8015,-97.4706,1.303,1111122 
TCOON,ioos:station:TCOON:003:1,2019-03-11T04:24:00Z,26.8015,-97.4706,1.326,1111122 
TCOON,ioos:station:TCOON:003:1,2019-03-11T05:24:00Z,26.8015,-97.4706,1.332,1111122 
TCOON,ioos:station:TCOON:003:1,2019-03-11T06:24:00Z,26.8015,-97.4706,1.334,1111122 
TCOON,ioos:station:TCOON:003:1,2019-03-11T07:24:00Z,26.8015,-97.4706,1.329,1111122 
TCOON,ioos:station:TCOON:003:1,2019-03-11T08:24:00Z,26.8015,-97.4706,1.333,1111122 
TCOON,ioos:station:TCOON:003:1,2019-03-11T09:24:00Z,26.8015,-97.4706,1.337,1111122 
TCOON,ioos:station:TCOON:003:1,2019-03-11T10:24:00Z,26.8015,-97.4706,1.333,1111122 
TCOON,ioos:station:TCOON:003:1,2019-03-11T11:24:00Z,26.8015,-97.4706,1.318,1111122 
TCOON,ioos:station:TCOON:003:1,2019-03-11T12:24:00Z,26.8015,-97.4706,1.299,1111122 
TCOON,ioos:station:TCOON:003:1,2019-03-11T13:24:00Z,26.8015,-97.4706,1.281,1111122 
TCOON,ioos:station:TCOON:003:1,2019-03-11T14:24:00Z,26.8015,-97.4706,1.303,1111122 
TCOON,ioos:station:TCOON:003:1,2019-03-11T15:24:00Z,26.8015,-97.4706,1.329,1111122 
TCOON,ioos:station:TCOON:003:1,2019-03-11T16:24:00Z,26.8015,-97.4706,1.341,1111122 
TCOON,ioos:station:TCOON:003:1,2019-03-11T17:24:00Z,26.8015,-97.4706,1.323,1111122 
TCOON,ioos:station:TCOON:003:1,2019-03-11T18:24:00Z,26.8015,-97.4706,1.312,1111122 
TCOON,ioos:station:TCOON:003:1,2019-03-11T19:24:00Z,26.8015,-97.4706,1.308,1111122 
TCOON,ioos:station:TCOON:003:1,2019-03-11T20:24:00Z,26.8015,-97.4706,1.299,1111122 
TCOON,ioos:station:TCOON:003:1,2019-03-11T21:24:00Z,26.8015,-97.4706,1.293,1111122 
TCOON,ioos:station:TCOON:003:1,2019-03-11T22:24:00Z,26.8015,-97.4706,1.298,1111122 
TCOON,ioos:station:TCOON:003:1,2019-03-11T23:24:00Z,26.8015,-97.4706,1.301,1111122 
TCOON,ioos:station:TCOON:003:1,2019-03-12T00:24:00Z,26.8015,-97.4706,1.294,1111122 
TCOON,ioos:station:TCOON:003:1,2019-03-12T01:24:00Z,26.8015,-97.4706,1.278,1111122 
TCOON,ioos:station:TCOON:003:1,2019-03-12T02:24:00Z,26.8015,-97.4706,1.286,1111122 
TCOON,ioos:station:TCOON:003:1,2019-03-12T03:24:00Z,26.8015,-97.4706,1.291,1111122 
TCOON,ioos:station:TCOON:003:1,2019-03-12T04:24:00Z,26.8015,-97.4706,1.305,1111122 
TCOON,ioos:station:TCOON:003:1,2019-03-12T05:24:00Z,26.8015,-97.4706,1.313,1111122 
TCOON,ioos:station:TCOON:003:1,2019-03-12T06:24:00Z,26.8015,-97.4706,1.318,1111122 
TCOON,ioos:station:TCOON:003:1,2019-03-12T07:24:00Z,26.8015,-97.4706,1.314,1111122 
TCOON,ioos:station:TCOON:003:1,2019-03-12T08:24:00Z,26.8015,-97.4706,1.31,1111122 
TCOON,ioos:station:TCOON:003:1,2019-03-12T09:24:00Z,26.8015,-97.4706,1.313,1111122 
TCOON,ioos:station:TCOON:003:1,2019-03-12T10:24:00Z,26.8015,-97.4706,1.316,1111122 
TCOON,ioos:station:TCOON:003:1,2019-03-12T11:24:00Z,26.8015,-97.4706,1.316,1111122 
TCOON,ioos:station:TCOON:003:1,2019-03-12T12:24:00Z,26.8015,-97.4706,1.319,1111122 
TCOON,ioos:station:TCOON:003:1,2019-03-12T13:24:00Z,26.8015,-97.4706,1.308,1111122 
TCOON,ioos:station:TCOON:003:1,2019-03-12T14:24:00Z,26.8015,-97.4706,1.325,1111122 
TCOON,ioos:station:TCOON:003:1,2019-03-12T15:24:00Z,26.8015,-97.4706,1.332,1111122 
TCOON,ioos:station:TCOON:003:1,2019-03-12T16:24:00Z,26.8015,-97.4706,1.331,1111122 
TCOON,ioos:station:TCOON:003:1,2019-03-12T17:24:00Z,26.8015,-97.4706,1.343,1111122 
TCOON,ioos:station:TCOON:003:1,2019-03-12T18:24:00Z,26.8015,-97.4706,1.344,1111122 
TCOON,ioos:station:TCOON:003:1,2019-03-12T19:24:00Z,26.8015,-97.4706,1.366,1111122 
TCOON,ioos:station:TCOON:003:1,2019-03-12T20:24:00Z,26.8015,-97.4706,1.381,1111122 
TCOON,ioos:station:TCOON:003:1,2019-03-12T21:24:00Z,26.8015,-97.4706,1.385,1111122 
TCOON,ioos:station:TCOON:003:1,2019-03-12T22:24:00Z,26.8015,-97.4706,1.389,1111122 
TCOON,ioos:station:TCOON:003:1,2019-03-12T23:24:00Z,26.8015,-97.4706,1.394,1111122 
TCOON,ioos:station:TCOON:003:1,2019-03-13T00:24:00Z,26.8015,-97.4706,1.423,1111122 
TCOON,ioos:station:TCOON:003:1,2019-03-13T01:24:00Z,26.8015,-97.4706,1.466,1111122 
TCOON,ioos:station:TCOON:003:1,2019-03-13T02:24:00Z,26.8015,-97.4706,1.5,1111122 
TCOON,ioos:station:TCOON:003:1,2019-03-13T03:24:00Z,26.8015,-97.4706,1.533,1111122 
TCOON,ioos:station:TCOON:003:1,2019-03-13T04:24:00Z,26.8015,-97.4706,1.577,1111122 
TCOON,ioos:station:TCOON:003:1,2019-03-13T05:24:00Z,26.8015,-97.4706,1.585,1111122 
TCOON,ioos:station:TCOON:003:1,2019-03-13T06:24:00Z,26.8015,-97.4706,1.611,1111122 